Location: Carr Mill
(33.2054°N, 85.9439°W)
Time: 22:49:57
(UTC+00:00)

STARLINK-2754 - Pass Details

Date: 24 June 2021
Orbit: 546 x 548 km, 53.1° (Epoch: 04 August)

Event Time Altitude Azimuth Distance (km) Brightness Sun altitude
Exits shadow 08:16:49 78° 327° (NNW) 560 3.5 -23.0°
Drops below altitude 10° 08:20:54 10° 42° (NE) 1,816 7.4 -22.5°
Enters shadow 09:16:56 -70° 224° (SW) 12,592 10.4 -14.4°
